Weather History for Mazatlan Airport, Mexico

Change the Weather History Date:

Tuesday, January 22, 2013

  Actual Average Record
Temperature  
Mean Temperature 68 °F -  
Max Temperature 82 °F 78 °F 89 °F (2005)
Min Temperature 53 °F 51 °F 46 °F (1999)
Cooling Degree Days 2    
Growing Degree Days 18 (Base 50)    
Moisture  
Dew Point 56 °F    
Average Humidity 73    
Maximum Humidity 94    
Minimum Humidity 48    
Precipitation  
Precipitation 0.00 in - - ()
Sea Level Pressure  
Sea Level Pressure 29.95 in    
Wind  
Wind Speed 7 mph ()    
Max Wind Speed 12 mph    
Max Gust Speed -    
Visibility 11.5 miles    
Events      
Averages and records for this station are not official NWS values.
T = Trace of Precipitation, MM = Missing Value Source: Averaged Metar Reports

Daily Weather History Graph

Daily Weather History Graph

Search for Another Location

Airport:

Trip Planner

Search our weather history database for the weather conditions in past years. The results will help you decide how hot, cold, wet, or windy it might be!

Date:

Astronomy

Jan. 22, 2013 Rise Set
Actual Time 6:47 AM MST 5:45 PM MST
Civil Twilight 6:23 AM MST 6:09 PM MST
Nautical Twilight 5:56 AM MST 6:37 PM MST
Astronomical Twilight 5:29 AM MST 7:04 PM MST
Moon 2:15 PM MST (1/22) 3:07 AM MST (1/22)
Length of Visible Light 11h 45m
Length of Day
10h 58m
Waxing Gibbous, 83% of the Moon is Illuminated
Jan 22
Waxing Gibbous
Jan 26
Full
Feb 3
Last Quarter
Feb 10
New
Feb 17
First Quarter

Hourly Weather History & Observations

Time (MST) Temp. Heat Index Dew Point Humidity Pressure Visibility Wind Dir Wind Speed Gust Speed Precip Events Conditions
12:50 AM 55.4 °F - 51.8 °F 88% 29.95 in 10.0 mi North 8.1 mph - N/A   Partly Cloudy
1:55 AM 55.4 °F - 51.8 °F 88% 29.96 in 10.0 mi NW 6.9 mph - N/A   Partly Cloudy
2:41 AM 53.6 °F - 50.0 °F 88% 29.96 in 10.0 mi NNW 5.8 mph - N/A   Scattered Clouds
3:50 AM 53.6 °F - 50.0 °F 88% 29.97 in 10.0 mi NNE 6.9 mph - N/A   Scattered Clouds
4:46 AM 53.6 °F - 50.0 °F 88% 29.98 in 10.0 mi North 8.1 mph - N/A   Partly Cloudy
5:42 AM 53.6 °F - 51.8 °F 94% 29.98 in 10.0 mi North 6.9 mph - N/A   Partly Cloudy
6:49 AM 53.6 °F - 50.0 °F 88% 29.98 in 12.0 mi NNE 8.1 mph - N/A   Clear
7:44 AM 55.4 °F - 53.6 °F 94% 29.99 in 12.0 mi North 8.1 mph - N/A   Clear
8:45 AM 66.2 °F - 57.2 °F 73% 30.01 in 12.0 mi North 6.9 mph - N/A   Clear
9:49 AM 71.6 °F - 62.6 °F 73% 30.01 in 12.0 mi ESE 8.1 mph - N/A   Clear
10:51 AM 71.6 °F - 62.6 °F 73% 30.01 in 12.0 mi South 6.9 mph - N/A   Clear
11:44 AM 80.6 °F 81.8 °F 62.6 °F 54% 29.97 in 12.0 mi South 8.1 mph - N/A   Clear
12:48 PM 82.4 °F 83.4 °F 62.6 °F 51% 29.94 in 12.0 mi SW 9.2 mph - N/A   Clear
1:41 PM 80.6 °F 81.8 °F 62.6 °F 54% 29.91 in 15.0 mi SSW 9.2 mph - N/A   Clear
2:51 PM 82.4 °F 82.9 °F 60.8 °F 48% 29.88 in 15.0 mi SW 9.2 mph - N/A   Clear
3:40 PM 82.4 °F 82.9 °F 60.8 °F 48% 29.88 in 15.0 mi WSW 9.2 mph - N/A   Clear
4:45 PM 78.8 °F - 60.8 °F 54% 29.88 in 15.0 mi SW 9.2 mph - N/A   Clear
5:42 PM 71.6 °F - 60.8 °F 69% 29.89 in 12.0 mi WSW 11.5 mph - N/A   Clear
6:42 PM 69.8 °F - 55.4 °F 60% 29.92 in 10.0 mi NW 6.9 mph - N/A   Clear
7:42 PM 66.2 °F - 53.6 °F 64% 29.92 in 10.0 mi NNW 8.1 mph - N/A   Clear
8:42 PM 62.6 °F - 51.8 °F 68% 29.95 in 10.0 mi WSW 8.1 mph - N/A   Clear
9:54 PM 59.0 °F - 51.8 °F 77% 29.97 in 10.0 mi Calm Calm - N/A   Clear
10:48 PM 55.4 °F - 50.0 °F 82% 29.97 in 10.0 mi North 6.9 mph - N/A   Clear
11:43 PM 57.2 °F - 50.0 °F 77% 29.97 in 10.0 mi WSW 8.1 mph - N/A   Clear